Weather History for Albany, NY

Change the Weather History Date:

Thursday, September 8, 2011

  Actual Average Record
Temperature  
Mean Temperature 68 °F 65 °F  
Max Temperature 74 °F 75 °F 93 °F (1945)
Min Temperature 61 °F 55 °F 34 °F (1978)
Degree Days  
Heating Degree Days 0 2  
Month to date heating degree days 4 15  
Since 1 July heating degree days 6 38  
Cooling Degree Days 3 2  
Month to date cooling degree days 36 25  
Year to date cooling degree days 743 568  
Growing Degree Days 16 (Base 50)    
Moisture  
Dew Point 62 °F    
Average Humidity 87    
Maximum Humidity 100    
Minimum Humidity 73    
Precipitation  
Precipitation 0.38 in 0.10 in 2.62 in (1934)
Month to date precipitation 4.02 0.80  
Year to date precipitation 41.92 26.95  
Sea Level Pressure  
Sea Level Pressure 30.06 in    
Wind  
Wind Speed 4 mph (NNE)    
Max Wind Speed 10 mph    
Max Gust Speed 13 mph    
Visibility 8 miles    
Events Rain    
T = Trace of Precipitation, MM = Missing Value Source: NWS Daily Summary

Daily Weather History Graph

Daily Weather History Graph

Search for Another Location

Airport:

Trip Planner

Search our weather history database for the weather conditions in past years. The results will help you decide how hot, cold, wet, or windy it might be!

Date:

Astronomy

Sep. 08, 2011 Rise Set
Actual Time 6:27 AM EDT 7:17 PM EDT
Civil Twilight 5:58 AM EDT 7:46 PM EDT
Nautical Twilight 5:24 AM EDT 8:20 PM EDT
Astronomical Twilight 4:48 AM EDT 8:55 PM EDT
Moon 5:14 PM EDT (9/8) 2:38 AM EDT (9/8)
Length of Visible Light 13h 48m
Length of Day
12h 50m
Waxing Gibbous, 87% of the Moon is Illuminated
Sep 8
Waxing Gibbous
Sep 12
Full
Sep 20
Last Quarter
Sep 27
New
Oct 3
First Quarter

Hourly Weather History & Observations

Time (EDT) Temp. Dew Point Humidity Pressure Visibility Wind Dir Wind Speed Gust Speed Precip Events Conditions
12:51 AM 62.1 °F 60.1 °F 93% 30.13 in 10.0 mi NNW 6.9 mph - 0.00 in   Overcast
1:18 AM 62.6 °F 60.8 °F 94% 30.12 in 2.0 mi North 4.6 mph - 0.00 in   Light Drizzle
1:37 AM 62.6 °F 60.8 °F 94% 30.13 in 3.0 mi North 4.6 mph - 0.01 in   Light Drizzle
1:51 AM 61.0 °F 60.1 °F 97% 30.12 in 5.0 mi North 6.9 mph - 0.01 in   Light Drizzle
2:26 AM 60.8 °F 60.8 °F 100% 30.11 in 9.0 mi ESE 5.8 mph - 0.00 in   Overcast
2:51 AM 61.0 °F 60.1 °F 97% 30.08 in 10.0 mi Variable 3.5 mph - 0.00 in   Overcast
3:02 AM 60.8 °F 60.8 °F 100% 30.07 in 10.0 mi Calm Calm - N/A   Overcast
3:51 AM 61.0 °F 60.1 °F 97% 30.07 in 10.0 mi West 4.6 mph - N/A   Overcast
4:51 AM 61.0 °F 60.1 °F 97% 30.12 in 4.0 mi Calm Calm - 0.02 in Rain Rain
5:51 AM 62.1 °F 60.1 °F 93% 30.11 in 7.0 mi North 3.5 mph - 0.08 in Rain Light Rain
6:13 AM 60.8 °F 60.8 °F 100% 30.10 in 5.0 mi Calm Calm - 0.06 in Rain Rain
6:26 AM 60.8 °F 60.8 °F 100% 30.10 in 3.0 mi Calm Calm - 0.11 in Rain Rain
6:42 AM 60.8 °F 60.8 °F 100% 30.10 in 4.0 mi Calm Calm - 0.15 in Rain Light Rain
6:51 AM 61.0 °F 60.1 °F 97% 30.09 in 3.0 mi South 3.5 mph - 0.17 in Rain Rain
7:26 AM 60.8 °F 60.8 °F 100% 30.09 in 3.0 mi South 9.2 mph - 0.04 in Rain Light Rain
7:51 AM 62.1 °F 60.1 °F 93% 30.09 in 3.0 mi NNE 3.5 mph - 0.05 in Rain Light Rain
8:00 AM 62.6 °F 60.8 °F 94% 30.10 in 3.0 mi North 5.8 mph - 0.01 in Rain Light Rain
8:51 AM 62.1 °F 60.1 °F 93% 30.11 in 6.0 mi North 3.5 mph - 0.04 in Rain Light Rain
9:51 AM 63.0 °F 61.0 °F 93% 30.08 in 8.0 mi NNE 9.2 mph - 0.01 in   Overcast
10:08 AM 62.6 °F 60.8 °F 94% 30.07 in 2.5 mi NE 6.9 mph - 0.00 in   Light Drizzle
10:15 AM 62.6 °F 60.8 °F 94% 30.07 in 4.0 mi NE 3.5 mph - N/A   Light Drizzle
10:18 AM 62.6 °F 60.8 °F 94% 30.06 in 5.0 mi NE 5.8 mph - 0.00 in   Light Drizzle
10:33 AM 64.4 °F 62.6 °F 94% 30.05 in 6.0 mi NNE 5.8 mph - 0.00 in Rain Light Rain
10:51 AM 64.9 °F 63.0 °F 93% 30.06 in 10.0 mi Calm Calm - 0.00 in Rain Light Rain
11:51 AM 68.0 °F 63.0 °F 84% 30.07 in 10.0 mi NNW 5.8 mph - 0.00 in   Overcast
12:32 PM 69.8 °F 64.4 °F 83% 30.06 in 10.0 mi North 8.1 mph - N/A   Overcast
12:51 PM 71.1 °F 64.0 °F 78% 30.05 in 10.0 mi North 6.9 mph - N/A   Overcast
1:51 PM 70.0 °F 64.9 °F 84% 30.06 in 10.0 mi North 6.9 mph - N/A   Overcast
2:05 PM 69.8 °F 64.4 °F 83% 30.06 in 10.0 mi Variable 4.6 mph - N/A   Overcast
2:51 PM 73.9 °F 64.9 °F 73% 30.04 in 10.0 mi Calm Calm - N/A   Mostly Cloudy
3:00 PM 71.6 °F 64.4 °F 78% 30.04 in 10.0 mi Calm Calm - N/A   Mostly Cloudy
3:51 PM 72.0 °F 64.9 °F 78% 30.01 in 10.0 mi North 5.8 mph - N/A   Mostly Cloudy
4:51 PM 71.1 °F 64.9 °F 81% 30.00 in 10.0 mi NE 5.8 mph - N/A   Mostly Cloudy
5:51 PM 71.1 °F 64.9 °F 81% 29.99 in 10.0 mi NNE 4.6 mph - N/A   Mostly Cloudy
6:51 PM 70.0 °F 64.9 °F 84% 29.98 in 10.0 mi NNW 4.6 mph - N/A   Mostly Cloudy
7:51 PM 69.1 °F 64.9 °F 87% 29.99 in 10.0 mi Calm Calm - N/A   Mostly Cloudy
8:51 PM 69.1 °F 64.9 °F 87% 30.00 in 10.0 mi Calm Calm - N/A   Mostly Cloudy
9:15 PM 66.2 °F 64.4 °F 94% 30.00 in 10.0 mi North 3.5 mph - N/A   Mostly Cloudy
9:51 PM 66.0 °F 64.0 °F 93% 30.00 in 10.0 mi Calm Calm - N/A   Mostly Cloudy
10:51 PM 66.0 °F 64.0 °F 93% 29.99 in 10.0 mi North 5.8 mph - N/A   Mostly Cloudy
11:51 PM 66.0 °F 63.0 °F 90% 29.97 in 10.0 mi NNE 3.5 mph - N/A   Overcast